| time (UTC) | temp F | wind direction | speed knots | gust knots | rain 1hr in | rain 24hr in | rain mn in | humidity % | barometer mb |
| 20260504223811 | 79 | 0.0 | 0.0 | 0.00 | 0.00 | 0.00 | 77 | 1012.2 | |
| 20260504223311 | 79 | 0.0 | 0.0 | 0.00 | 0.00 | 0.00 | 77 | 1012.1 | |
| 20260504222811 | 79 | 0.0 | 0.0 | 0.00 | 0.00 | 0.00 | 77 | 1012.0 | |
| 20260504222310 | 79 | 0.0 | 0.0 | 0.00 | 0.00 | 0.00 | 77 | 1011.9 | |
| 20260504221811 | 79 | 0.0 | 0.0 | 0.00 | 0.00 | 0.00 | 77 | 1011.8 | |
| 20260504221310 | 79 | 0.0 | 0.0 | 0.00 | 0.00 | 0.00 | 76 | 1011.8 | |
| 20260504220811 | 80 | 0.0 | 0.0 | 0.00 | 0.00 | 0.00 | 76 | 1011.7 | |
| 20260504220310 | 80 | 0.0 | 0.0 | 0.00 | 0.00 | 0.00 | 76 | 1011.6 | |
| 20260504215811 | 80 | 0.0 | 0.0 | 0.00 | 0.00 | 0.00 | 76 | 1011.5 | |
| 20260504215310 | 80 | 0.0 | 0.0 | 0.00 | 0.00 | 0.00 | 76 | 1011.4 | |
| 20260504214811 | 80 | 0.0 | 0.0 | 0.00 | 0.00 | 0.00 | 76 | 1011.4 | |
| 20260504214310 | 80 | 0.0 | 0.0 | 0.00 | 0.00 | 0.00 | 76 | 1011.4 | |
| 20260504213811 | 80 | 0.0 | 0.0 | 0.00 | 0.00 | 0.00 | 76 | 1011.4 | |
| 20260504213310 | 80 | 0.0 | 0.0 | 0.00 | 0.00 | 0.00 | 76 | 1011.3 | |
| 20260504212810 | 80 | 0.0 | 0.0 | 0.00 | 0.00 | 0.00 | 76 | 1011.3 | |
| 20260504212311 | 80 | 0.0 | 0.0 | 0.00 | 0.00 | 0.00 | 76 | 1011.3 | |
| 20260504211811 | 80 | 0.0 | 0.0 | 0.00 | 0.00 | 0.00 | 75 | 1011.2 | |
| 20260504210811 | 80 | 0.0 | 0.0 | 0.00 | 0.00 | 0.00 | 75 | 1011.2 | |
| 20260504210311 | 80 | 0.0 | 0.0 | 0.00 | 0.00 | 0.00 | 75 | 1011.1 | |
| 20260504205811 | 80 | 0.0 | 0.0 | 0.00 | 0.00 | 0.00 | 75 | 1011.0 | |
| 20260504205311 | 80 | 0.0 | 0.0 | 0.00 | 0.00 | 0.00 | 75 | 1011.1 | |
| 20260504204811 | 80 | 0.0 | 0.0 | 0.00 | 0.00 | 0.00 | 75 | 1011.1 | |
| 20260504204311 | 80 | 0.0 | 0.0 | 0.00 | 0.00 | 0.00 | 75 | 1011.2 | |
| 20260504203810 | 80 | 0.0 | 0.0 | 0.00 | 0.00 | 0.00 | 75 | 1011.2 | |
| 20260504203310 | 80 | 0.0 | 0.0 | 0.00 | 0.00 | 0.00 | 75 | 1011.4 | |
| 20260504202811 | 80 | 0.0 | 0.0 | 0.00 | 0.00 | 0.00 | 75 | 1011.4 | |
| 20260504202310 | 80 | 0.0 | 0.0 | 0.00 | 0.00 | 0.00 | 75 | 1011.3 | |
| 20260504201811 | 80 | 0.0 | 0.0 | 0.00 | 0.00 | 0.00 | 75 | 1011.3 | |
| 20260504201311 | 80 | 0.0 | 0.0 | 0.00 | 0.00 | 0.00 | 75 | 1011.3 | |
| 20260504200311 | 80 | 0.0 | 0.0 | 0.00 | 0.00 | 0.00 | 75 | 1011.3 | |
| 20260504195810 | 80 | 0.0 | 0.0 | 0.00 | 0.00 | 0.00 | 75 | 1011.4 | |
| 20260504195311 | 80 | 0.0 | 0.0 | 0.00 | 0.00 | 0.00 | 75 | 1011.4 | |
| 20260504194810 | 80 | 0.0 | 0.0 | 0.00 | 0.00 | 0.00 | 75 | 1011.5 | |
| 20260504194311 | 81 | 0.0 | 0.0 | 0.00 | 0.00 | 0.00 | 74 | 1011.5 | |
| 20260504193811 | 81 | 0.0 | 0.0 | 0.00 | 0.00 | 0.00 | 74 | 1011.5 | |
| 20260504193310 | 81 | 0.0 | 0.0 | 0.00 | 0.00 | 0.00 | 74 | 1011.5 | |
| 20260504192811 | 81 | 0.0 | 0.0 | 0.00 | 0.00 | 0.00 | 73 | 1011.4 | |
| 20260504192310 | 81 | 0.0 | 0.0 | 0.00 | 0.00 | 0.00 | 73 | 1011.6 | |
| 20260504191811 | 81 | 0.0 | 0.0 | 0.00 | 0.00 | 0.00 | 73 | 1011.6 | |
| 20260504191311 | 81 | 0.0 | 0.0 | 0.00 | 0.00 | 0.00 | 73 | 1011.7 | |
| 20260504190811 | 81 | 0.0 | 0.0 | 0.00 | 0.00 | 0.00 | 73 | 1011.7 | |
| 20260504190310 | 81 | 0.0 | 0.0 | 0.00 | 0.00 | 0.00 | 73 | 1011.8 | |
| 20260504185811 | 81 | 0.0 | 0.0 | 0.00 | 0.00 | 0.00 | 73 | 1011.8 | |
| 20260504185311 | 81 | 0.0 | 0.0 | 0.00 | 0.00 | 0.00 | 73 | 1011.8 | |
| 20260504184811 | 81 | 0.0 | 0.0 | 0.00 | 0.00 | 0.00 | 73 | 1012.0 | |
| 20260504184311 | 81 | 0.0 | 0.0 | 0.00 | 0.00 | 0.00 | 73 | 1012.0 | |
| 20260504183811 | 81 | 0.0 | 0.0 | 0.00 | 0.00 | 0.00 | 73 | 1012.1 | |
| 20260504183311 | 81 | 0.0 | 0.0 | 0.00 | 0.00 | 0.00 | 74 | 1012.2 | |
| 20260504182811 | 81 | 0.0 | 0.0 | 0.00 | 0.00 | 0.00 | 74 | 1012.3 | |
| 20260504182311 | 81 | 0.0 | 0.0 | 0.00 | 0.00 | 0.00 | 75 | 1012.2 | |
| 20260504181810 | 81 | 0.0 | 0.0 | 0.00 | 0.00 | 0.00 | 75 | 1012.3 | |
| 20260504181311 | 81 | 0.0 | 0.0 | 0.00 | 0.00 | 0.00 | 75 | 1012.4 | |
| 20260504180810 | 81 | 0.0 | 0.0 | 0.00 | 0.00 | 0.00 | 75 | 1012.4 | |
| 20260504180311 | 81 | 0.0 | 0.0 | 0.00 | 0.00 | 0.00 | 75 | 1012.4 | |
| 20260504175810 | 81 | 0.0 | 0.0 | 0.00 | 0.00 | 0.00 | 76 | 1012.6 | |
| 20260504175310 | 81 | 0.0 | 0.0 | 0.00 | 0.00 | 0.00 | 76 | 1012.6 | |
| 20260504174811 | 81 | 0.0 | 0.0 | 0.00 | 0.00 | 0.00 | 76 | 1012.8 | |
| 20260504174311 | 81 | 0.0 | 0.0 | 0.00 | 0.00 | 0.00 | 75 | 1013.0 | |
| 20260504173811 | 81 | 0.0 | 0.0 | 0.00 | 0.00 | 0.00 | 75 | 1013.0 | |
| 20260504173313 | 81 | 0.0 | 0.0 | 0.00 | 0.00 | 0.00 | 75 | 1013.0 | |
| 20260504172811 | 81 | 0.0 | 0.0 | 0.00 | 0.00 | 0.00 | 76 | 1013.0 | |
| 20260504172310 | 82 | 0.0 | 0.0 | 0.00 | 0.00 | 0.00 | 75 | 1013.1 | |
| 20260504171811 | 82 | 0.0 | 0.0 | 0.00 | 0.00 | 0.00 | 75 | 1013.2 | |
| 20260504171311 | 82 | 0.0 | 0.0 | 0.00 | 0.00 | 0.00 | 75 | 1013.3 | |
| 20260504170811 | 82 | 0.0 | 0.0 | 0.00 | 0.00 | 0.00 | 75 | 1013.4 | |
| 20260504170311 | 82 | 0.0 | 0.0 | 0.00 | 0.00 | 0.00 | 75 | 1013.4 | |
| 20260504160311 | 82 | 0.0 | 0.0 | 0.00 | 0.00 | 0.00 | 75 | 1013.7 | |
| 20260504150811 | 83 | 0.0 | 0.0 | 0.00 | 0.00 | 0.00 | 74 | 1013.1 | |
| 20260504150311 | 83 | 0.0 | 0.0 | 0.00 | 0.00 | 0.00 | 73 | 1013.2 | |
| 20260504141311 | 83 | 0.0 | 0.0 | 0.00 | 0.00 | 0.00 | 73 | 1013.9 | |
| 20260504140813 | 83 | 0.0 | 0.0 | 0.00 | 0.00 | 0.00 | 73 | 1013.7 | |
| 20260504140312 | 83 | 0.0 | 0.0 | 0.00 | 0.00 | 0.00 | 73 | 1013.8 | |
| 20260504130811 | 83 | 0.0 | 0.0 | 0.00 | 0.00 | 0.00 | 71 | 1013.3 | |
| 20260504130311 | 83 | 0.0 | 0.0 | 0.00 | 0.00 | 0.00 | 71 | 1013.2 | |
| 20260504120311 | 85 | 0.0 | 0.0 | 0.00 | 0.00 | 0.00 | 71 | 1012.1 | |
| 20260504110310 | 86 | 0.0 | 0.0 | 0.00 | 0.00 | 0.00 | 72 | 1010.7 | |
| 20260504100311 | 86 | 0.0 | 0.0 | 0.00 | 0.00 | 0.00 | 68 | 1010.1 | |
| 20260504081810 | 88 | 0.0 | 0.0 | 0.00 | 0.00 | 0.00 | 71 | 1008.9 | |
| 20260504081311 | 88 | 0.0 | 0.0 | 0.00 | 0.00 | 0.00 | 71 | 1008.8 | |
| 20260504080811 | 88 | 0.0 | 0.0 | 0.00 | 0.00 | 0.00 | 71 | 1008.8 | |
| 20260504080311 | 88 | 0.0 | 0.0 | 0.00 | 0.00 | 0.00 | 71 | 1008.5 | |
| 20260504070311 | 90 | 0.0 | 0.0 | 0.00 | 0.00 | 0.00 | 61 | 1008.9 | |
| 20260504050311 | 88 | 0.0 | 0.0 | 0.00 | 0.00 | 0.00 | 62 | 1011.2 | |
| 20260504045811 | 88 | 0.0 | 0.0 | 0.00 | 0.00 | 0.00 | 63 | 1011.1 | |
| 20260504045310 | 87 | 0.0 | 0.0 | 0.00 | 0.00 | 0.00 | 64 | 1011.4 | |
| 20260504044811 | 87 | 0.0 | 0.0 | 0.00 | 0.00 | 0.00 | 64 | 1011.4 | |
| 20260504044311 | 87 | 0.0 | 0.0 | 0.00 | 0.00 | 0.00 | 65 | 1011.4 | |
| 20260504043810 | 87 | 0.0 | 0.0 | 0.00 | 0.00 | 0.00 | 65 | 1011.6 | |
| 20260504043311 | 87 | 0.0 | 0.0 | 0.00 | 0.00 | 0.00 | 65 | 1011.7 | |
| 20260504042811 | 87 | 0.0 | 0.0 | 0.00 | 0.00 | 0.00 | 65 | 1011.8 | |
| 20260504042311 | 87 | 0.0 | 0.0 | 0.00 | 0.00 | 0.00 | 65 | 1011.9 | |
| 20260504041811 | 86 | 0.0 | 0.0 | 0.00 | 0.00 | 0.00 | 65 | 1012.0 | |
| 20260504041311 | 86 | 0.0 | 0.0 | 0.00 | 0.00 | 0.00 | 65 | 1011.9 | |
| 20260504040811 | 86 | 0.0 | 0.0 | 0.00 | 0.00 | 0.00 | 64 | 1012.1 | |
| 20260504040311 | 86 | 0.0 | 0.0 | 0.00 | 0.00 | 0.00 | 64 | 1012.2 | |
| 20260504035811 | 86 | 0.0 | 0.0 | 0.00 | 0.00 | 0.00 | 63 | 1012.2 | |
| 20260504035311 | 86 | 0.0 | 0.0 | 0.00 | 0.00 | 0.00 | 62 | 1012.2 | |
| 20260504034811 | 86 | 0.0 | 0.0 | 0.00 | 0.00 | 0.00 | 62 | 1012.2 | |
| 20260504034311 | 86 | 0.0 | 0.0 | 0.00 | 0.00 | 0.00 | 63 | 1012.3 | |
| 20260504033811 | 86 | 0.0 | 0.0 | 0.00 | 0.00 | 0.00 | 63 | 1012.3 | |
| 20260504033310 | 86 | 0.0 | 0.0 | 0.00 | 0.00 | 0.00 | 63 | 1012.4 | |
| 20260504032811 | 85 | 0.0 | 0.0 | 0.00 | 0.00 | 0.00 | 64 | 1012.6 | |
| 20260504032311 | 85 | 0.0 | 0.0 | 0.00 | 0.00 | 0.00 | 66 | 1012.7 | |
| 20260504031811 | 85 | 0.0 | 0.0 | 0.00 | 0.00 | 0.00 | 66 | 1012.8 | |
| 20260504031311 | 85 | 0.0 | 0.0 | 0.00 | 0.00 | 0.00 | 66 | 1012.9 | |
| 20260504030811 | 84 | 0.0 | 0.0 | 0.00 | 0.00 | 0.00 | 67 | 1013.0 | |
| 20260504030311 | 84 | 0.0 | 0.0 | 0.00 | 0.00 | 0.00 | 67 | 1013.1 | |
| 20260504025811 | 84 | 0.0 | 0.0 | 0.00 | 0.00 | 0.00 | 68 | 1013.2 | |
| 20260504025311 | 84 | 0.0 | 0.0 | 0.00 | 0.00 | 0.00 | 68 | 1013.4 | |
| 20260504024810 | 84 | 0.0 | 0.0 | 0.00 | 0.00 | 0.00 | 69 | 1013.5 | |
| 20260504024311 | 83 | 0.0 | 0.0 | 0.00 | 0.00 | 0.00 | 69 | 1013.5 | |
| 20260504023811 | 83 | 0.0 | 0.0 | 0.00 | 0.00 | 0.00 | 69 | 1013.7 | |
| 20260504023311 | 83 | 0.0 | 0.0 | 0.00 | 0.00 | 0.00 | 69 | 1013.7 | |
| 20260504022811 | 83 | 0.0 | 0.0 | 0.00 | 0.00 | 0.00 | 70 | 1013.7 | |
| 20260504022311 | 83 | 0.0 | 0.0 | 0.00 | 0.00 | 0.00 | 71 | 1013.7 | |
| 20260504021811 | 82 | 0.0 | 0.0 | 0.00 | 0.00 | 0.00 | 71 | 1013.8 | |
| 20260504021311 | 82 | 0.0 | 0.0 | 0.00 | 0.00 | 0.00 | 71 | 1013.7 | |
| 20260504020811 | 82 | 0.0 | 0.0 | 0.00 | 0.00 | 0.00 | 71 | 1013.9 | |
| 20260504020311 | 82 | 0.0 | 0.0 | 0.00 | 0.00 | 0.00 | 71 | 1013.9 | |
| 20260504015811 | 81 | 0.0 | 0.0 | 0.00 | 0.00 | 0.00 | 72 | 1014.0 | |
| 20260504015311 | 81 | 0.0 | 0.0 | 0.00 | 0.00 | 0.00 | 72 | 1014.1 | |
| 20260504014811 | 81 | 0.0 | 0.0 | 0.00 | 0.00 | 0.00 | 73 | 1014.1 | |
| 20260504014311 | 80 | 0.0 | 0.0 | 0.00 | 0.00 | 0.00 | 73 | 1014.1 | |
| 20260504013811 | 80 | 0.0 | 0.0 | 0.00 | 0.00 | 0.00 | 73 | 1014.1 | |
| 20260504013311 | 80 | 0.0 | 0.0 | 0.00 | 0.00 | 0.00 | 73 | 1014.0 | |
| 20260504012811 | 80 | 0.0 | 0.0 | 0.00 | 0.00 | 0.00 | 73 | 1014.0 | |
| 20260504012311 | 80 | 0.0 | 0.0 | 0.00 | 0.00 | 0.00 | 73 | 1013.9 | |
| 20260504011811 | 80 | 0.0 | 0.0 | 0.00 | 0.00 | 0.00 | 74 | 1013.9 | |
| 20260504011311 | 79 | 0.0 | 0.0 | 0.00 | 0.00 | 0.00 | 74 | 1013.9 | |
| 20260504010811 | 79 | 0.0 | 0.0 | 0.00 | 0.00 | 0.00 | 73 | 1014.0 | |
| 20260504010311 | 79 | 0.0 | 0.0 | 0.00 | 0.00 | 0.00 | 73 | 1014.1 | |
| 20260504005811 | 79 | 0.0 | 0.0 | 0.00 | 0.00 | 0.00 | 73 | 1013.9 | |
| 20260504005311 | 79 | 0.0 | 0.0 | 0.00 | 0.00 | 0.00 | 73 | 1013.9 | |
| 20260504004811 | 79 | 0.0 | 0.0 | 0.00 | 0.00 | 0.00 | 73 | 1013.9 | |
| 20260504004311 | 79 | 0.0 | 0.0 | 0.00 | 0.00 | 0.00 | 73 | 1013.9 | |
| 20260504003811 | 78 | 0.0 | 0.0 | 0.00 | 0.00 | 0.00 | 73 | 1013.9 | |
| 20260504003311 | 78 | 0.0 | 0.0 | 0.00 | 0.00 | 0.00 | 73 | 1013.9 | |
| 20260504002811 | 78 | 0.0 | 0.0 | 0.00 | 0.00 | 0.00 | 73 | 1013.9 | |
| 20260504002311 | 78 | 0.0 | 0.0 | 0.00 | 0.00 | 0.00 | 73 | 1013.9 | |
| 20260504001811 | 78 | 0.0 | 0.0 | 0.00 | 0.00 | 0.00 | 73 | 1013.8 | |
| 20260504001311 | 78 | 0.0 | 0.0 | 0.00 | 0.00 | 0.00 | 73 | 1013.8 | |
| 20260504000811 | 78 | 0.0 | 0.0 | 0.00 | 0.00 | 0.00 | 73 | 1013.8 | |
| 20260504000311 | 78 | 0.0 | 0.0 | 0.00 | 0.00 | 0.00 | 73 | 1013.9 | |
| 20260503235811 | 78 | 0.0 | 0.0 | 0.00 | 0.00 | 0.00 | 73 | 1013.9 | |
| 20260503235311 | 78 | 0.0 | 0.0 | 0.00 | 0.00 | 0.00 | 73 | 1014.0 | |
| 20260503234811 | 78 | 0.0 | 0.0 | 0.00 | 0.00 | 0.00 | 73 | 1013.8 | |
| 20260503234311 | 78 | 0.0 | 0.0 | 0.00 | 0.00 | 0.00 | 72 | 1013.7 | |
| 20260503233811 | 78 | 0.0 | 0.0 | 0.00 | 0.00 | 0.00 | 72 | 1013.5 | |
| 20260503233311 | 78 | 0.0 | 0.0 | 0.00 | 0.00 | 0.00 | 72 | 1013.3 | |
| 20260503232811 | 78 | 0.0 | 0.0 | 0.00 | 0.00 | 0.00 | 72 | 1013.3 | |
| 20260503232311 | 78 | 0.0 | 0.0 | 0.00 | 0.00 | 0.00 | 72 | 1013.4 | |
| 20260503231811 | 78 | 0.0 | 0.0 | 0.00 | 0.00 | 0.00 | 72 | 1013.4 | |
| 20260503231312 | 78 | 0.0 | 0.0 | 0.00 | 0.00 | 0.00 | 72 | 1013.2 | |
| 20260503230811 | 78 | 0.0 | 0.0 | 0.00 | 0.00 | 0.00 | 72 | 1013.2 | |
| 20260503230311 | 78 | 0.0 | 0.0 | 0.00 | 0.00 | 0.00 | 72 | 1013.2 | |
| 20260503225811 | 78 | 0.0 | 0.0 | 0.00 | 0.00 | 0.00 | 72 | 1013.2 | |
| 20260503225311 | 78 | 0.0 | 0.0 | 0.00 | 0.00 | 0.00 | 72 | 1013.0 | |
| 20260503224811 | 78 | 0.0 | 0.0 | 0.00 | 0.00 | 0.00 | 72 | 1013.0 | |
| 20260503224311 | 78 | 0.0 | 0.0 | 0.00 | 0.00 | 0.00 | 72 | 1012.9 |